1494385201.13,21337,11.69,72528.8,-16.89,-17.83,-17.83,0,*62
1494385202.35,21338,11.69,72528.0,-16.89,-17.83,-17.83,0,*6D
1494385203.58,21339,11.69,72530.8,-16.89,-17.83,-17.83,0,*6C
1494385204.83,21340,11.69,72530.3,-16.91,-17.87,-17.87,0,*6B
1494385206.05,21341,11.69,72530.5,-16.89,-17.83,-17.83,0,*63
1494385207.3,21342,11.69,72524.8,-16.87,-17.83,-17.83,0,*6E
1494385208.59,21343,11.69,72528.3,-16.87,-17.93,-17.79,0,*6B
1494385209.82,21344,11.69,72528.3,-16.89,-17.83,-17.83,0,*66
1494385211.11,21345,11.69,72528.8,-16.91,-17.97,-17.93,0,*6A
1494385212.36,21346,11.69,72528.3,-16.89,-17.93,-17.83,0,*65
1494385213.61,21347,11.69,72526.8,-16.87,-17.83,-17.83,0,*6B
1494385214.86,21348,11.69,72532.3,-16.87,-17.83,-17.83,0,*64
1494385216.1,21349,11.69,72528.8,-16.87,-17.83,-17.83,0,*65
1494385217.33,21350,11.69,72530.5,-16.89,-17.83,-17.83,0,*63
1494385218.55,21351,11.69,72530.3,-16.89,-17.83,-17.83,0,*62
1494385219.8,21352,11.69,72530.3,-16.87,-17.83,-17.83,0,*6F
1494385221.03,21353,11.69,72528.5,-16.89,-17.83,-17.83,0,*60
1494385222.27,21354,11.69,72528.5,-16.89,-17.93,-17.83,0,*66
1494385223.52,21355,11.69,72528.5,-16.87,-17.83,-17.83,0,*68
1494385224.79,21356,11.69,72530.3,-16.87,-17.93,-17.83,0,*6A
1494385226.04,21357,11.69,72532.5,-16.87,-17.83,-17.83,0,*6A
1494385227.29,21358,11.69,72528.5,-16.87,-17.83,-17.83,0,*65
1494385228.56,21359,11.69,72528.3,-16.87,-17.83,-17.79,0,*61
1494385229.82,21360,11.69,72530.5,-16.87,-17.83,-17.93,0,*6F
1494385231.09,21361,11.69,72534.8,-16.87,-17.83,-17.93,0,*6E
1494385232.33,21362,11.69,72532.0,-16.87,-17.83,-17.83,0,*6C
1494385233.58,21363,11.69,72532.3,-16.89,-17.93,-17.83,0,*62
1494385234.87,21364,11.69,72530.3,-16.87,-17.93,-17.93,0,*6A
1494385236.12,21365,11.69,72528.3,-16.87,-17.83,-17.83,0,*6B
1494385237.39,21366,11.69,72528.3,-16.87,-17.93,-17.83,0,*69
1494385238.66,21367,11.69,72530.0,-16.87,-17.93,-17.83,0,*68
1494385239.93,21368,11.69,72528.0,-16.87,-17.93,-17.83,0,*67
1494385241.2,21369,11.69,72528.3,-16.87,-17.93,-17.83,0,*66
1494385242.48,21370,11.69,72532.0,-16.87,-17.97,-17.83,0,*6A
1494385243.73,21371,11.69,72528.5,-16.87,-17.83,-17.83,0,*6E
1494385244.95,21372,11.69,72528.3,-16.89,-17.83,-17.83,0,*63
1494385246.18,21373,11.69,72528.5,-16.89,-17.83,-17.83,0,*62
1494385247.45,21374,11.69,72528.8,-16.87,-17.93,-17.83,0,*6A
1494385248.74,21375,11.69,72528.5,-16.87,-17.93,-17.93,0,*6A
1494385250.01,21376,11.69,72532.8,-16.87,-17.93,-17.83,0,*68
1494385251.27,21377,11.69,72530.5,-16.85,-17.93,-17.93,0,*6A
1494385252.52,21378,11.69,72532.8,-16.87,-17.83,-17.83,0,*67
1494385253.79,21379,11.69,72528.8,-16.87,-17.93,-17.83,0,*67
1494385255.06,21380,11.69,72528.3,-16.87,-17.93,-17.83,0,*61
1494385256.35,21381,11.69,72526.3,-16.87,-17.93,-17.93,0,*61
1494385257.63,21382,11.69,72524.0,-16.87,-17.93,-17.93,0,*62
1494385258.88,21383,11.69,72530.5,-16.87,-17.83,-17.83,0,*63
1494385260.15,21384,11.69,72528.3,-16.87,-17.93,-17.83,0,*65
1494385261.43,21385,11.69,72532.5,-16.87,-17.93,-17.83,0,*64
1494385262.71,21386,11.69,72534.0,-16.87,-17.93,-17.93,0,*66
1494385263.98,21387,11.69,72532.3,-16.87,-17.93,-17.83,0,*66
1494385265.26,21388,11.69,72534.3,-16.87,-17.93,-17.83,0,*69
1494385266.52,21389,11.69,72532.3,-16.87,-17.83,-17.93,0,*68
1494385267.79,21390,11.69,72528.5,-16.87,-17.93,-17.83,0,*60
1494385269.04,21391,11.69,72530.3,-16.87,-17.83,-17.83,0,*60
1494385270.31,21392,11.69,72528.8,-16.87,-17.93,-17.83,0,*62
1494385271.57,21393,11.69,72528.8,-16.85,-17.93,-17.93,0,*60
1494385272.86,21394,11.69,72528.3,-16.87,-17.93,-17.93,0,*65
1494385274.13,21395,11.69,72532.8,-16.87,-17.93,-17.83,0,*65
1494385275.4,21396,11.69,72530.0,-16.87,-17.93,-17.83,0,*66
1494385276.65,21397,11.69,72534.5,-16.87,-17.83,-17.83,0,*66
1494385277.92,21398,11.69,72534.0,-16.87,-17.93,-17.83,0,*68
1494385279.17,21399,11.69,72528.3,-16.85,-17.93,-17.83,0,*6B
1494385280.45,21400,11.69,72530.0,-16.87,-17.93,-17.93,0,*6F
1494385281.7,21401,11.69,72530.5,-16.85,-17.97,-17.83,0,*69
1494385282.96,21402,11.69,72530.3,-16.85,-17.93,-17.93,0,*6F
1494385284.24,21403,11.69,72530.3,-16.87,-17.93,-17.83,0,*6D
1494385285.51,21404,11.69,72532.3,-16.87,-17.93,-17.83,0,*6A
1494385286.79,21405,11.69,72534.0,-16.87,-17.93,-17.93,0,*6A
1494385288.04,21406,11.69,72532.5,-16.85,-17.93,-17.83,0,*6A
1494385289.31,21407,11.69,72532.3,-16.87,-17.93,-17.83,0,*69
1494385290.53,21408,11.69,72534.0,-16.85,-17.83,-17.83,0,*65
1494385291.76,21409,11.69,72532.8,-16.89,-17.83,-17.83,0,*68
1494385293.02,21410,11.69,72532.3,-16.89,-17.93,-17.93,0,*60
1494385294.27,21411,11.69,72538.8,-16.89,-17.93,-17.83,0,*60
1494385295.53,21412,11.69,72538.3,-16.89,-17.93,-17.93,0,*62
1494385296.8,21413,11.69,72536.8,-16.87,-17.83,-17.93,0,*6C
1494385298.06,21414,11.69,72534.3,-16.89,-17.93,-17.93,0,*64
1494385299.33,21415,11.69,72532.8,-16.85,-17.97,-17.93,0,*6D
1494385300.59,21416,11.69,72534.0,-16.87,-17.83,-17.93,0,*69
1494385301.88,21417,11.69,72532.0,-16.87,-17.93,-17.93,0,*69
1494385303.1,21418,11.69,72536.0,-16.89,-17.83,-17.83,0,*68
1494385304.4,21419,11.69,72534.0,-16.87,-17.93,-17.97,0,*63
1494385305.69,21420,11.69,72534.8,-16.87,-17.93,-17.93,0,*6D
1494385306.98,21421,11.69,72536.0,-16.87,-17.93,-17.93,0,*6C
1494385308.26,21422,11.69,72538.8,-16.87,-17.93,-17.93,0,*6F
1494385309.52,21423,11.69,72532.5,-16.85,-17.93,-17.93,0,*6C
1494385310.77,21424,11.69,72532.0,-16.89,-17.93,-17.83,0,*66
1494385312.01,21425,11.69,72536.3,-16.89,-17.83,-17.93,0,*67
1494385313.26,21426,11.69,72532.8,-16.89,-17.93,-17.83,0,*64
1494385314.53,21427,11.69,72532.3,-16.85,-17.97,-17.93,0,*6C
1494385315.81,21428,11.69,72532.3,-16.87,-17.93,-17.93,0,*65
1494385317.06,21429,11.69,72534.5,-16.87,-17.83,-17.83,0,*64
1494385318.35,21430,11.69,72532.3,-16.87,-17.93,-17.93,0,*6C
1494385319.64,21431,11.69,72534.5,-16.87,-17.93,-17.93,0,*6D
1494385320.91,21432,11.69,72530.5,-16.87,-17.93,-17.83,0,*6F
1494385322.15,21433,11.69,72534.5,-16.85,-17.93,-17.83,0,*6C
1494385323.44,21434,11.69,72534.5,-16.87,-17.93,-17.93,0,*68
1494385324.69,21435,11.69,72534.5,-16.85,-17.93,-17.83,0,*6A
1494385325.98,21436,11.69,72534.3,-16.87,-17.97,-17.93,0,*6E
1494385327.25,21437,11.69,72536.5,-16.87,-17.97,-17.83,0,*6E
1494385328.54,21438,11.69,72536.3,-16.87,-17.93,-17.93,0,*64
1494385329.81,21439,11.69,72534.8,-16.89,-17.97,-17.93,0,*6F
1494385331.11,21440,11.69,72538.8,-16.87,-17.97,-17.97,0,*6B
1494385332.41,21441,11.69,72532.8,-16.87,-17.97,-17.97,0,*6A
1494385333.7,21442,11.69,72538.8,-16.87,-17.93,-17.93,0,*69
1494385335.0,21443,11.69,72532.5,-16.87,-17.97,-17.97,0,*68
1494385336.29,21444,11.69,72534.5,-16.87,-17.97,-17.93,0,*6B
1494385337.58,21445,11.69,72534.8,-16.87,-17.97,-17.93,0,*6A
1494385338.87,21446,11.69,72530.3,-16.87,-17.93,-17.97,0,*69
1494385340.17,21447,11.69,72528.8,-16.87,-17.97,-17.93,0,*68
1494385341.45,21448,11.69,72534.0,-16.87,-17.93,-17.93,0,*63
1494385342.75,21449,11.69,72534.8,-16.87,-17.97,-17.93,0,*66
1494385344.04,21450,11.69,72532.3,-16.87,-17.93,-17.97,0,*6E
1494385345.34,21451,11.69,72534.5,-16.87,-17.97,-17.97,0,*6B
1494385346.64,21452,11.69,72530.3,-16.87,-17.93,-17.97,0,*6C
1494385347.9,21453,11.69,72532.3,-16.89,-17.97,-17.93,0,*63
1494385349.17,21454,11.69,72532.8,-16.89,-17.93,-17.93,0,*60
1494385350.44,21455,11.69,72534.0,-16.89,-17.97,-17.97,0,*61
1494385351.72,21456,11.69,72530.3,-16.89,-17.93,-17.97,0,*66
1494385352.96,21457,11.69,72534.0,-16.89,-17.97,-18.07,0,*65
1494385354.24,21458,11.69,72534.8,-16.89,-17.97,-17.97,0,*6C
1494385355.52,21459,11.69,72530.3,-16.89,-17.97,-17.97,0,*6D
1494385356.8,21460,11.69,72530.8,-16.87,-17.93,-17.93,0,*69
1494385358.08,21461,11.69,72528.3,-16.89,-17.97,-17.97,0,*66
1494385359.35,21462,11.69,72532.0,-16.87,-18.07,-17.97,0,*6D
1494385360.64,21463,11.69,72534.0,-16.87,-17.97,-17.93,0,*6E
1494385361.94,21464,11.69,72530.0,-16.87,-17.97,-17.93,0,*69
1494385363.24,21465,11.69,72528.5,-16.87,-17.97,-17.97,0,*6C
1494385364.51,21466,11.69,72530.5,-16.89,-17.93,-17.97,0,*65
1494385365.8,21467,11.69,72530.8,-16.87,-17.97,-17.93,0,*6A
1494385367.07,21468,11.69,72530.8,-16.89,-17.97,-17.97,0,*6F
1494385368.35,21469,11.69,72530.3,-16.89,-17.93,-17.97,0,*6A
1494385369.61,21470,11.69,72528.3,-16.89,-17.93,-17.93,0,*66
1494385370.88,21471,11.69,72530.0,-16.89,-17.97,-17.93,0,*63
1494385372.1,21472,11.69,72530.8,-16.89,-18.07,-18.07,0,*64
1494385373.37,21473,11.69,72534.0,-16.87,-18.07,-17.97,0,*6D
1494385374.67,21474,11.69,72528.8,-16.87,-17.97,-17.97,0,*6C
1494385375.96,21475,11.69,72530.5,-16.87,-17.97,-17.93,0,*69
1494385377.21,21476,11.69,72530.3,-16.89,-18.07,-17.97,0,*66
1494385378.48,21477,11.69,72528.8,-16.91,-18.11,-18.01,0,*69
1494385379.76,21478,11.69,72530.3,-16.89,-17.97,-17.97,0,*6E
1494385381.0,21479,11.69,72528.0,-16.89,-18.07,-17.93,0,*6D
1494385382.24,21480,11.69,72528.8,-16.89,-18.07,-17.97,0,*6F
1494385383.52,21481,11.69,72532.0,-16.89,-17.97,-17.97,0,*68
1494385384.77,21482,11.69,72530.8,-16.89,-18.07,-17.97,0,*6D
1494385386.02,21483,11.69,72530.0,-16.89,-17.97,-18.07,0,*6C
1494385387.27,21484,11.69,72530.5,-16.89,-17.97,-18.07,0,*6B
1494385388.54,21485,11.69,72526.8,-16.89,-17.97,-17.97,0,*6C
1494385389.82,21486,11.69,72530.5,-16.89,-17.97,-17.97,0,*6F
1494385391.07,21487,11.69,72530.0,-16.89,-18.07,-17.97,0,*68
1494385392.34,21488,11.69,72530.5,-16.87,-18.07,-17.97,0,*69
1494385393.64,21489,11.69,72528.8,-16.87,-17.97,-17.97,0,*6E
1494385394.93,21490,11.69,72534.3,-16.87,-17.97,-17.93,0,*62
1494385396.23,21491,11.69,72532.5,-16.87,-17.97,-17.97,0,*67
1494385397.48,21492,11.69,72530.3,-16.89,-18.07,-17.97,0,*6C
1494385398.72,21493,11.69,72532.3,-16.89,-18.07,-17.97,0,*6D
1494385399.95,21494,11.69,72532.3,-16.89,-18.07,-18.07,0,*6C
1494385401.19,21495,11.69,72530.3,-16.91,-18.11,-18.17,0,*62
1494385402.46,21496,11.69,72530.3,-16.89,-17.97,-17.93,0,*6A
1494385403.73,21497,11.69,72532.0,-16.89,-17.97,-17.97,0,*6F
1494385404.98,21498,11.69,72528.3,-16.89,-18.07,-17.97,0,*66
1494385406.2,21499,11.69,72532.0,-16.89,-18.11,-18.07,0,*66
1494385407.45,21500,11.69,72532.8,-16.89,-17.97,-18.07,0,*66
1494385408.67,21501,11.69,72532.0,-16.89,-18.11,-18.11,0,*61
1494385409.92,21502,11.69,72530.0,-16.91,-18.17,-18.11,0,*6D
1494385411.16,21503,11.69,72530.8,-16.89,-18.21,-17.97,0,*61
1494385412.41,21504,11.69,72530.0,-16.91,-18.11,-18.11,0,*6D
1494385413.68,21505,11.69,72530.5,-16.89,-17.97,-17.97,0,*65
1494385414.93,21506,11.69,72528.5,-16.89,-18.07,-17.97,0,*60
1494385416.2,21507,11.69,72528.8,-16.91,-18.11,-18.01,0,*6F
1494385417.45,21508,11.69,72530.3,-16.91,-18.11,-18.11,0,*61
1494385418.67,21509,11.69,72526.5,-16.89,-18.07,-18.07,0,*69
1494385419.95,21510,11.69,72524.0,-16.91,-18.01,-18.11,0,*69
1494385421.19,21511,11.69,72520.5,-16.91,-18.11,-18.11,0,*69
1494385422.44,21512,11.69,72524.3,-16.89,-18.07,-17.97,0,*65
1494385423.69,21513,11.69,72520.8,-16.89,-17.97,-18.07,0,*64
1494385424.91,21514,11.69,72522.3,-16.89,-18.07,-18.07,0,*65
1494385426.16,21515,11.69,72524.0,-16.91,-18.11,-18.11,0,*6D
1494385427.43,21516,11.69,72526.3,-16.91,-18.11,-18.01,0,*6F
1494385428.7,21517,11.69,72528.3,-16.91,-18.01,-18.11,0,*6E
1494385429.95,21518,11.69,72530.8,-16.89,-17.97,-18.07,0,*6F
1494385431.2,21519,11.69,72526.0,-16.91,-18.11,-18.11,0,*61
1494385432.44,21520,11.69,72524.3,-16.89,-18.11,-17.97,0,*63
1494385433.71,21521,11.69,72526.8,-16.91,-18.11,-18.01,0,*6B
1494385434.96,21522,11.69,72526.5,-16.89,-18.07,-17.97,0,*66
1494385436.18,21523,11.69,72528.8,-16.89,-18.11,-18.07,0,*66
1494385437.43,21524,11.69,72528.8,-16.89,-18.07,-17.97,0,*60
1494385438.7,21525,11.69,72532.0,-16.91,-18.11,-18.01,0,*6F
1494385439.92,21526,11.69,72530.8,-16.89,-18.07,-18.07,0,*64
1494385441.17,21527,11.69,72528.0,-16.89,-18.07,-17.97,0,*63
1494385442.43,21528,11.69,72530.5,-16.91,-18.11,-18.01,0,*62
1494385443.68,21529,11.69,72534.3,-16.91,-18.11,-18.11,0,*62
1494385444.93,21530,11.69,72534.5,-16.89,-18.07,-17.97,0,*65
1494385446.23,21531,11.69,72532.0,-16.91,-18.01,-18.01,0,*6B
1494385447.47,21532,11.69,72534.3,-16.91,-18.11,-18.11,0,*68
1494385448.75,21533,11.69,72534.0,-16.91,-17.97,-18.11,0,*68
1494385450.0,21534,11.69,72534.8,-16.91,-18.17,-18.11,0,*68
1494385451.3,21535,11.69,72534.3,-16.91,-18.01,-18.01,0,*6F
1494385452.52,21536,11.69,72526.8,-16.89,-18.07,-18.07,0,*65
1494385453.76,21537,11.69,72528.0,-16.91,-18.11,-18.07,0,*6A
1494385455.06,21538,11.69,72528.0,-16.91,-18.01,-18.01,0,*62
1494385456.33,21539,11.69,72526.5,-16.91,-18.01,-18.11,0,*62
1494385457.58,21540,11.69,72528.5,-16.89,-18.07,-17.97,0,*62
1494385458.86,21541,11.69,72530.0,-16.91,-18.01,-18.11,0,*6D
1494385460.11,21542,11.69,72528.8,-16.89,-18.07,-17.97,0,*60
1494385461.38,21543,11.69,72530.8,-16.91,-18.01,-18.11,0,*6F
1494385462.66,21544,11.69,72532.0,-16.89,-17.97,-17.97,0,*60
1494385463.92,21545,11.69,72532.8,-16.91,-18.11,-18.01,0,*69
1494385465.22,21546,11.69,72530.0,-16.91,-18.01,-18.01,0,*6B
1494385466.52,21547,11.69,72532.8,-16.91,-18.01,-18.01,0,*6A
1494385467.76,21548,11.69,72528.3,-16.91,-18.11,-18.11,0,*65
1494385469.03,21549,11.69,72534.5,-16.91,-18.11,-18.01,0,*65
1494385470.31,21550,11.69,72534.3,-16.91,-18.01,-18.11,0,*6D
1494385471.58,21551,11.69,72528.0,-16.91,-18.11,-18.01,0,*6C
1494385472.84,21552,11.69,72528.8,-16.91,-18.11,-18.01,0,*6F
1494385474.12,21553,11.69,72534.3,-16.89,-17.97,-17.97,0,*66
1494385475.39,21554,11.69,72532.3,-16.91,-18.11,-18.01,0,*69
1494385476.66,21555,11.69,72534.3,-16.91,-18.01,-18.11,0,*68
1494385477.96,21556,11.69,72534.8,-16.91,-18.01,-18.01,0,*6A
1494385479.26,21557,11.69,72532.5,-16.91,-18.01,-18.01,0,*6B
1494385480.55,21558,11.69,72534.3,-16.91,-18.01,-18.01,0,*64
1494385481.8,21559,11.69,72534.8,-16.95,-18.07,-18.07,0,*61
1494385483.04,21560,11.69,72532.3,-16.95,-18.07,-18.17,0,*6A
1494385484.34,21561,11.69,72532.5,-16.91,-18.01,-17.97,0,*6E
1494385485.59,21562,11.69,72532.0,-16.89,-17.97,-18.07,0,*62
1494385486.87,21563,11.69,72532.8,-16.91,-18.01,-18.11,0,*6D
1494385488.11,21564,11.69,72528.3,-16.89,-18.11,-18.01,0,*63
1494385489.35,21565,11.69,72528.3,-16.91,-18.11,-18.11,0,*6A
1494385490.6,21566,11.69,72528.3,-16.95,-18.17,-18.17,0,*6D
1494385491.84,21567,11.69,72530.8,-16.95,-18.17,-18.07,0,*6D
1494385493.11,21568,11.69,72532.0,-16.91,-18.11,-18.01,0,*66
1494385494.41,21569,11.69,72534.8,-16.91,-18.01,-18.01,0,*66
1494385495.68,21570,11.69,72534.5,-16.89,-17.97,-17.97,0,*67
1494385496.93,21571,11.69,72534.8,-16.95,-18.07,-18.07,0,*6B
1494385498.18,21572,11.69,72534.8,-16.95,-18.07,-18.07,0,*68
1494385499.4,21573,11.69,72534.3,-16.97,-18.07,-18.07,0,*6B
1494385500.65,21574,11.69,72532.8,-16.95,-18.07,-18.07,0,*6E
1494385501.9,21575,11.69,72528.5,-16.95,-18.07,-18.07,0,*6F
1494385503.15,21576,11.69,72532.8,-16.95,-18.07,-18.07,0,*6C
1494385504.4,21577,11.69,72532.8,-16.95,-18.07,-18.07,0,*6D
1494385505.69,21578,11.69,72530.5,-16.91,-18.01,-18.01,0,*66
1494385506.99,21579,11.69,72532.0,-16.91,-18.01,-17.97,0,*67
1494385508.26,21580,11.69,72534.3,-16.95,-18.07,-18.01,0,*63
1494385509.51,21581,11.69,72534.8,-16.95,-18.07,-18.17,0,*65
1494385510.75,21582,11.69,72532.8,-16.95,-18.17,-18.07,0,*66
1494385512.03,21583,11.69,72530.3,-16.95,-18.07,-18.01,0,*60
1494385513.27,21584,11.69,72532.0,-16.95,-18.07,-18.07,0,*61
1494385514.55,21585,11.69,72532.0,-16.95,-18.07,-18.01,0,*66
1494385515.82,21586,11.69,72528.3,-16.95,-18.07,-18.01,0,*65
1494385517.09,21587,11.69,72532.0,-16.95,-18.07,-18.01,0,*64
1494385518.39,21588,11.69,72536.5,-16.91,-17.97,-18.01,0,*69
1494385519.69,21589,11.69,72532.0,-16.91,-18.01,-17.97,0,*68
1494385520.96,21590,11.69,72532.0,-16.95,-18.07,-18.01,0,*62
1494385522.26,21591,11.69,72532.0,-16.91,-18.01,-18.01,0,*61
1494385523.53,21592,11.69,72532.5,-16.89,-17.97,-17.97,0,*6B
1494385524.83,21593,11.69,72534.5,-16.91,-18.01,-17.97,0,*63
1494385526.13,21594,11.69,72534.8,-16.91,-18.01,-17.97,0,*64
1494385527.4,21595,11.69,72534.8,-16.91,-18.11,-18.01,0,*64
1494385528.7,21596,11.69,72532.3,-16.91,-18.01,-17.97,0,*66
1494385529.99,21597,11.69,72532.5,-16.91,-18.01,-18.01,0,*67
1494385531.27,21598,11.69,72534.3,-16.89,-17.97,-17.97,0,*61
1494385532.57,21599,11.69,72534.3,-16.91,-18.01,-17.97,0,*69
1494385533.86,21600,11.69,72530.0,-16.91,-18.01,-18.01,0,*6A
1494385535.14,21601,11.69,72532.8,-16.91,-18.01,-17.87,0,*6A
1494385536.41,21602,11.69,72534.8,-16.95,-18.07,-18.01,0,*6A
1494385537.71,21603,11.69,72534.0,-16.95,-18.01,-18.01,0,*6D
1494385538.98,21604,11.69,72532.3,-16.95,-18.01,-18.07,0,*6C
1494385540.28,21605,11.69,72532.5,-16.91,-17.97,-18.01,0,*6F
1494385541.55,21606,11.69,72528.0,-16.95,-18.07,-18.01,0,*6E
1494385542.85,21607,11.69,72532.3,-16.91,-18.01,-17.97,0,*6D
1494385544.1,21608,11.69,72534.3,-16.95,-18.07,-18.07,0,*66
1494385545.37,21609,11.69,72532.5,-16.95,-18.07,-18.01,0,*61
1494385546.64,21610,11.69,72532.3,-16.95,-18.07,-18.01,0,*69
1494385547.91,21611,11.69,72534.5,-16.97,-18.01,-17.93,0,*68
1494385549.18,21612,11.69,72530.5,-16.95,-18.07,-18.01,0,*6B
1494385550.48,21613,11.69,72536.8,-16.95,-17.93,-18.01,0,*68
1494385551.75,21614,11.69,72530.0,-16.95,-18.01,-18.07,0,*6D
1494385553.02,21615,11.69,72526.5,-16.95,-18.07,-18.01,0,*6C
1494385554.32,21616,11.69,72528.5,-16.91,-18.01,-17.97,0,*6D
1494385555.62,21617,11.69,72524.8,-16.91,-17.97,-17.97,0,*6C
1494385556.89,21618,11.69,72530.8,-16.95,-18.07,-18.01,0,*61
1494385558.16,21619,11.69,72532.3,-16.95,-18.17,-18.01,0,*61
1494385559.46,21620,11.69,72532.0,-16.91,-18.01,-17.97,0,*68
1494385560.77,21621,11.69,72532.0,-16.91,-17.97,-17.97,0,*69
1494385562.06,21622,11.69,72534.8,-16.95,-18.01,-18.01,0,*6E
1494385563.31,21623,11.69,72532.5,-16.95,-18.07,-18.07,0,*6F
1494385564.56,21624,11.69,72530.3,-16.97,-18.17,-18.01,0,*6D
1494385565.82,21625,11.69,72534.8,-16.95,-18.17,-17.93,0,*6A
1494385567.09,21626,11.69,72534.5,-16.95,-18.07,-18.01,0,*6C
1494385568.34,21627,11.69,72534.0,-16.95,-18.07,-18.07,0,*6B
1494385569.63,21628,11.69,72534.5,-16.95,-17.93,-17.93,0,*64
1494385570.93,21629,11.69,72534.0,-16.95,-18.01,-18.01,0,*65
1494385572.22,21630,11.69,72528.8,-16.95,-18.01,-18.01,0,*6D
1494385573.47,21631,11.69,72532.0,-16.95,-18.07,-18.17,0,*6D
1494385574.74,21632,11.69,72536.5,-16.95,-18.07,-18.01,0,*69
1494385576.01,21633,11.69,72534.5,-16.95,-18.07,-18.01,0,*68
1494385577.3,21634,11.69,72532.8,-16.95,-17.93,-17.93,0,*69
1494385578.57,21635,11.69,72534.0,-16.95,-18.17,-18.01,0,*6F
1494385579.87,21636,11.69,72534.8,-16.95,-18.01,-17.93,0,*6F
1494385581.16,21637,11.69,72530.0,-16.95,-18.01,-18.01,0,*6A
1494385582.43,21638,11.69,72538.8,-16.95,-18.07,-18.01,0,*63
1494385583.73,21639,11.69,72534.3,-16.95,-17.93,-18.01,0,*60
1494385585.0,21640,11.69,72534.5,-16.95,-18.07,-17.93,0,*68
1494385586.27,21641,11.69,72534.5,-16.97,-18.01,-18.01,0,*69
1494385587.54,21642,11.69,72534.8,-16.95,-18.07,-18.01,0,*6E
1494385588.83,21643,11.69,72536.3,-16.95,-18.01,-18.01,0,*69
1494385590.1,21644,11.69,72532.5,-16.95,-18.07,-17.93,0,*6C
1494385591.37,21645,11.69,72534.3,-16.95,-18.07,-18.01,0,*69
1494385592.65,21646,11.69,72532.3,-16.95,-18.07,-18.01,0,*6A
1494385593.92,21647,11.69,72534.3,-16.97,-18.01,-18.01,0,*6F
1494385595.16,21648,11.69,72536.5,-16.97,-18.01,-18.07,0,*66
1494385596.38,21649,11.69,72536.3,-16.97,-18.07,-18.07,0,*61
1494385597.68,21650,11.69,72536.3,-16.95,-17.93,-18.01,0,*6F
1494385598.97,21651,11.69,72540.8,-16.95,-18.01,-18.01,0,*6A
1494385600.27,21652,11.69,72536.8,-16.95,-18.01,-18.01,0,*69
1494385601.54,21653,11.69,72540.3,-16.97,-18.01,-18.01,0,*6A
1494385602.83,21654,11.69,72536.3,-16.95,-18.01,-17.93,0,*6B
1494385604.12,21655,11.69,72532.3,-16.95,-18.01,-17.93,0,*6A
1494385605.37,21656,11.69,72532.3,-16.95,-18.07,-18.07,0,*6D
1494385606.67,21657,11.69,72534.5,-16.95,-18.01,-18.01,0,*6C
1494385607.96,21658,11.69,72534.5,-16.95,-18.01,-17.93,0,*67
1494385609.26,21659,11.69,72532.0,-16.95,-18.01,-18.01,0,*62
1494385610.55,21660,11.69,72538.0,-16.95,-17.93,-18.01,0,*6C
1494385611.82,21661,11.69,72536.3,-16.97,-18.01,-18.01,0,*6B
1494385613.09,21662,11.69,72534.5,-16.95,-18.17,-18.01,0,*6D
1494385614.39,21663,11.69,72532.0,-16.95,-18.01,-18.01,0,*6B
1494385615.68,21664,11.69,72534.3,-16.95,-17.93,-17.93,0,*6C
1494385616.97,21665,11.69,72536.3,-16.95,-18.01,-17.93,0,*69
1494385618.27,21666,11.69,72534.0,-16.95,-17.93,-18.01,0,*6A
1494385619.56,21667,11.69,72538.5,-16.95,-18.01,-17.93,0,*6B
1494385620.83,21668,11.69,72532.8,-16.95,-17.93,-18.07,0,*62
1494385622.13,21669,11.69,72538.0,-16.95,-18.01,-17.93,0,*65
1494385623.4,21670,11.69,72532.5,-16.91,-17.97,-17.87,0,*6C
1494385624.68,21671,11.69,72536.3,-16.91,-17.97,-17.87,0,*6D
1494385625.96,21672,11.69,72538.0,-16.91,-17.97,-17.87,0,*6E
1494385627.24,21673,11.69,72536.3,-16.91,-17.97,-17.87,0,*6F
1494385628.52,21674,11.69,72534.8,-16.91,-17.97,-17.87,0,*68
1494385629.79,21675,11.69,72532.3,-16.91,-17.87,-17.97,0,*69
1494385631.08,21676,11.69,72534.8,-16.95,-17.93,-17.93,0,*6F
1494385632.35,21677,11.69,72534.5,-16.95,-18.07,-17.93,0,*6C
1494385633.65,21678,11.69,72538.0,-16.95,-18.01,-18.01,0,*61
1494385634.95,21679,11.69,72536.3,-16.91,-17.97,-17.97,0,*64
1494385636.24,21680,11.69,72534.3,-16.95,-18.01,-17.93,0,*62
1494385637.54,21681,11.69,72536.8,-16.95,-18.01,-18.01,0,*67
1494385638.83,21682,11.69,72532.3,-16.95,-17.93,-17.93,0,*64
1494385640.12,21683,11.69,72538.8,-16.95,-17.93,-18.01,0,*61
1494385641.43,21684,11.69,72538.8,-16.91,-17.97,-17.97,0,*66
1494385642.68,21685,11.69,72532.5,-16.91,-17.87,-17.87,0,*67
1494385643.97,21686,11.69,72538.8,-16.95,-18.01,-17.93,0,*64
1494385645.27,21687,11.69,72532.8,-16.95,-17.93,-18.01,0,*65
1494385646.56,21688,11.69,72534.3,-16.95,-18.01,-18.01,0,*6E
1494385647.86,21689,11.69,72536.0,-16.95,-18.01,-18.01,0,*6F
1494385649.15,21690,11.69,72534.0,-16.95,-18.01,-18.01,0,*67
1494385650.45,21691,11.69,72534.3,-16.95,-18.01,-17.93,0,*62
1494385651.72,21692,11.69,72536.8,-16.91,-17.87,-17.97,0,*60
1494385653.02,21693,11.69,72538.0,-16.91,-17.97,-17.97,0,*60
1494385654.32,21694,11.69,72536.0,-16.95,-18.01,-17.93,0,*67
1494385655.62,21695,11.69,72536.0,-16.91,-18.01,-17.97,0,*66
1494385656.91,21696,11.69,72532.0,-16.95,-17.93,-18.01,0,*65
1494385658.19,21697,11.69,72534.5,-16.91,-17.97,-17.87,0,*65
1494385659.48,21698,11.69,72536.5,-16.95,-18.01,-18.01,0,*6F
1494385660.76,21699,11.69,72536.8,-16.95,-17.93,-18.07,0,*6C
1494385662.03,21700,11.69,72536.0,-16.91,-17.87,-18.01,0,*6A
1494385663.33,21701,11.69,72538.5,-16.91,-17.97,-17.97,0,*6A
1494385664.61,21702,11.69,72534.0,-16.91,-17.97,-17.87,0,*68
1494385665.88,21703,11.69,72538.3,-16.95,-18.01,-18.07,0,*6A
1494385667.15,21704,11.69,72538.3,-16.95,-18.07,-18.01,0,*6D
1494385668.46,21705,11.69,72538.3,-16.91,-17.97,-17.97,0,*6E
1494385669.73,21706,11.69,72538.3,-16.91,-17.97,-17.87,0,*6C
1494385671.0,21707,11.69,72536.3,-16.89,-17.93,-17.93,0,*65
1494385672.26,21708,11.69,72536.8,-16.89,-17.93,-17.93,0,*6A
1494385673.54,21709,11.69,72536.3,-16.91,-17.97,-17.87,0,*63
1494385674.82,21710,11.69,72536.0,-16.91,-17.97,-17.87,0,*6B
1494385676.09,21711,11.69,72536.5,-16.95,-18.07,-18.01,0,*69
1494385677.36,21712,11.69,72532.8,-16.97,-17.93,-17.93,0,*6E
1494385678.63,21713,11.69,72534.3,-16.95,-18.07,-18.01,0,*6B
1494385679.91,21714,11.69,72532.0,-16.91,-17.97,-17.87,0,*6F
1494385681.21,21715,11.69,72536.8,-16.91,-17.97,-17.97,0,*6F
1494385682.51,21716,11.69,72536.8,-16.91,-17.97,-17.97,0,*6C
1494385683.79,21717,11.69,72534.8,-16.91,-17.87,-17.97,0,*6C
1494385685.05,21718,11.69,72536.0,-16.89,-17.97,-17.93,0,*6F
1494385686.36,21719,11.69,72536.8,-16.91,-17.97,-17.97,0,*63
1494385687.66,21720,11.69,72540.8,-16.91,-17.97,-17.97,0,*69
1494385688.95,21721,11.69,72538.3,-16.95,-18.01,-17.93,0,*68
1494385690.25,21722,11.69,72536.0,-16.91,-17.97,-17.97,0,*6B
1494385691.56,21723,11.69,72536.5,-16.91,-17.97,-17.97,0,*6A
1494385692.84,21724,11.69,72534.3,-16.91,-17.97,-17.87,0,*6C
1494385694.13,21725,11.69,72538.8,-16.95,-18.01,-18.01,0,*68
1494385695.38,21726,11.69,72536.0,-16.91,-17.87,-17.87,0,*6F
1494385696.66,21727,11.69,72536.3,-16.91,-18.01,-17.87,0,*6F
1494385697.91,21728,11.69,72536.8,-16.91,-17.87,-17.87,0,*61
1494385699.21,21729,11.69,72538.3,-16.91,-17.97,-17.97,0,*60
1494385700.51,21730,11.69,72532.3,-16.91,-18.01,-17.97,0,*68